Погода в Каршеве

Россия / Республика Карелия     61°40′51″N   36°18′29″E
темп.,
°C
ветер,
м/с
пор.,
м/с
влажн.,
%
обл.,
%
осадки,
мм/ч
давл.,
гПа
погр.,
м
19 апреля, пн
пн1900:000всв27845 0.0 1034129
03:00−1всв27845 0.0 1034116
06:00−1всв27825 0.0 1034141
09:00+4в35610 0.0 1034462
12:00+7вюв34494 0.0 10341120
15:00+8вюв24485 0.0 10331298
18:00+7вюв255991 0.0 1032352
21:00+3вюв2573100 0.0 103277
20 апреля, вт
вт2000:00+2вюв2477100 0.0 103272
03:00+1вюв247952 0.0 103269
06:000вюв25810 0.0 1031109
09:00+5юв36570 0.0 1031619
12:00+8юв35460 0.0 10291209
15:00+9юв45410 0.0 10271351
18:00+8юв374815 0.0 1025950
21:00+4в3766100 0.0 1024136
21 апреля, ср
ср2100:00+3в397097 0.0 1021208
03:00+2в3975100 0.0 1019212
06:00+2в41075100 0.0 1017293
09:00+5в51161100 0.0 1013547
12:00+6вюв51156100 0.1 10091020
15:00+3вюв51193100 2.4 1007903
18:00+3вюв41096100 0.2 1004752
21:00+2вюв3997100 2.1 1003485
22 апреля, чт
чт2200:00+1вюв3898100 1.7 1001405
03:00+1ююв2798100 2.8 1001452
06:00+1ю4998100 0.6 1002301
09:00+1ююз51097100 1.2 1004491
12:00+1ююз51196100 0.8 1006514
15:00+2ююз41197100 1.5 1008517
18:00+5ю4108979 0.1 1010482
21:00+5ю4128537 0.1 1010354
23 апреля, пт
пт2300:00+5ююв4128598 0.0 1009329
03:00+5ю51292100 0.1 1010523
06:00+3ю3896100 0.0 1011252
09:00+6ююв488697 0.0 1012526
12:00+8ююв3675100 0.0 1011879
15:00+9ю4773100 0.2 1010993
18:00+7ююз1583100 0.4 1009515
21:00+3зсз4797100 4.1 1008426